Home   Weather   Woodbridge Run   Past weeks
Flag for USA

Past Weather in Woodbridge Run, North Carolina, USA — Yesterday and Last 2 Weeks

Now
55 °F

Drizzle. Overcast.


Feels Like: 54 °F
Forecast: 67 / 53 °F
Wind: 5 mph from Northeast

Location: Rowan County Airport

Current Time: Oct 19, 2019 at 9:41:07 pm

Latest Report: Oct 19, 2019 at 8:55 pm


Visibility: 10 mi

Pressure: 29.95 "Hg

Humidity: 79%

Dew Point: 48 °F

Location of Woodbridge RunLocation

Past Weather in Woodbridge Run — Graph

°F

Woodbridge Run Temperature Yesterday

Maximum temperature yesterday: 66 °F (at 3:55 pm)
Minimum temperature yesterday: 36 °F (at 7:15 am)
Average temperature yesterday: 50 °F

High & Low Weather Summary for the Past Weeks

 TemperatureHumidityPressure
High82 °F (Oct 4, 8:15 pm)100% (Oct 14, 3:55 am)30.31 "Hg (Oct 14, 3:55 am)
Low36 °F (Oct 18, 7:15 am)32% (Oct 15, 2:15 pm)29.67 "Hg (Oct 16, 2:15 pm)
Average61 °F75%30.08 "Hg
* Reported Oct 4 8:15 pm — Oct 19 8:15 pm, Woodbridge Run. Weather by CustomWeather, © 2019

Note: Actual official high and low records may vary slightly from our data, if they occured in-between our weather recording intervals... More about our weather records

Advertising

Woodbridge Run Weather History for the Previous 24 Hours

Scroll right to see more
 ConditionsComfort  
Time TempWeatherWind HumidityBarometerVisibility
8:15 pm
Sat, Oct 19
55 °FOvercast.3 mph76%29.97 "Hg10 mi
7:55 pm56 °FRain. Mostly cloudy.3 mph74%29.97 "Hg10 mi
7:35 pm56 °FOvercast.5 mph76%29.97 "Hg10 mi
7:15 pm56 °FOvercast.5 mph75%29.97 "Hg10 mi
6:55 pm56 °FMostly cloudy.3 mph73%29.97 "Hg10 mi
6:35 pm56 °FMostly cloudy.3 mph72%29.97 "Hg10 mi
6:15 pm56 °FMostly cloudy.No wind70%29.98 "Hg10 mi
5:55 pm56 °FMore clouds than sun.3 mph69%29.99 "Hg10 mi
5:35 pm57 °FMostly cloudy.3 mph70%29.99 "Hg10 mi
3:55 pm61 °FOvercast.3 mph50%30.02 "Hg10 mi
3:35 pm61 °FOvercast.No wind52%30.02 "Hg10 mi
3:15 pm61 °FOvercast.6 mph53%30.02 "Hg10 mi
2:55 pm61 °FOvercast.6 mph54%30.03 "Hg10 mi
2:35 pm62 °FMostly cloudy.No wind53%30.03 "Hg10 mi
1:55 pm61 °FScattered clouds.3 mph55%30.05 "Hg10 mi
1:35 pm60 °FScattered clouds.3 mph56%30.06 "Hg10 mi
1:15 pm60 °FSunny.No wind56%30.07 "Hg10 mi
12:55 pm59 °FSunny.No wind56%30.09 "Hg10 mi
12:15 pm59 °FSunny.3 mph56%30.10 "Hg10 mi
11:55 am58 °FSunny.No wind59%30.10 "Hg10 mi
11:35 am56 °FSunny.No wind69%30.10 "Hg10 mi
11:15 am55 °FSunny.No wind73%30.10 "Hg10 mi
10:55 am54 °FSunny.No wind76%30.10 "Hg10 mi
10:35 am52 °FSunny.No wind83%30.11 "Hg10 mi
10:15 am50 °FSunny.No wind84%30.11 "Hg10 mi
9:55 am47 °FSunny.No wind92%30.11 "Hg10 mi
9:35 am46 °FSunny.No wind96%30.10 "Hg10 mi
9:15 am45 °FSunny.No wind97%30.10 "Hg10 mi
8:55 am43 °FSunny.No wind98%30.09 "Hg10 mi
8:35 am42 °FSunny.No wind98%30.08 "Hg10 mi
8:15 am40 °FSunny.No wind99%30.09 "Hg10 mi
7:55 am40 °FSunny.No wind98%30.07 "Hg10 mi
7:35 am39 °FSunny.No wind98%30.07 "Hg10 mi
7:15 am40 °FClear.No wind98%30.07 "Hg10 mi
6:55 am39 °FClear.No wind99%30.07 "Hg10 mi
6:35 am39 °FClear.No wind99%30.07 "Hg10 mi
6:15 am41 °FClear.No wind98%30.07 "Hg10 mi
5:55 am39 °FClear.No wind99%30.06 "Hg10 mi
5:35 am39 °FClear.No wind99%30.06 "Hg10 mi
5:15 am39 °FClear.No wind99%30.06 "Hg7 mi
4:55 am40 °FClear.No wind99%30.06 "Hg10 mi
4:35 am40 °FFog.No wind99%30.05 "Hg4 mi
4:15 am40 °FClear.No wind98%30.05 "Hg10 mi
3:55 am40 °FClear.No wind98%30.05 "Hg7 mi
3:35 am41 °FClear.No wind98%30.05 "Hg7 mi
3:15 am41 °FClear.No wind98%30.05 "Hg10 mi
2:55 am41 °FClear.No wind98%30.05 "Hg10 mi
2:35 am42 °FClear.No wind97%30.05 "Hg10 mi
1:55 am44 °FClear.No wind97%30.05 "Hg10 mi
1:35 am43 °FClear.No wind97%30.05 "Hg10 mi
1:15 am43 °FClear.No wind98%30.04 "Hg10 mi
12:55 am43 °FClear.No wind97%30.04 "Hg10 mi
12:35 am43 °FClear.No wind97%30.04 "Hg10 mi
12:15 am43 °FClear.No wind98%30.05 "Hg10 mi
11:55 pm
Fri, Oct 18
43 °FClear.No wind97%30.04 "Hg10 mi
11:35 pm44 °FClear.No wind97%30.04 "Hg10 mi
11:15 pm44 °FClear.No wind96%30.05 "Hg10 mi
10:35 pm45 °FClear.No wind94%30.03 "Hg10 mi
10:15 pm46 °FClear.No wind95%30.03 "Hg10 mi
9:55 pm46 °FClear.No wind96%30.03 "Hg10 mi
9:35 pm46 °FClear.No wind92%30.04 "Hg10 mi
9:15 pm47 °FClear.No wind92%30.03 "Hg10 mi
Weather by CustomWeather, © 2019

See weather overview